Fosston, Minnesota
Current Conditions -  °F | °C
As of 1:55 AM on Sunday 26 Oct 2014 (Local Time) from KFSE Reporting Station
Clear Clear  
Wind Chill: 23°   Ceiling: Unl
Heat Index: 30°   Visibility: 10mi
Dew Point: 23°   Wind: 7mph
Humidity: 75%   Direction: 180°S
Pressure: 30.01"   Gusts: NA
Location:  47.58°N, 95.75°W
Report Text: KFSE 260655Z AUTO 18006KT 10SM CLR M01/M05 A3001 RMK AO2
Loading
Personal Weather Stations






























Interactive Weather Map
Tropical Storm Tracking
New forecast layout! Learn more

10-Day Weather Forecast

Advertisements
Track Severe Weather on mobile